Weather History for Ft Pierce, FL

Change the Weather History Date:

Tuesday, July 9, 2013

  Actual Average Record
Temperature  
Mean Temperature 78 °F -  
Max Temperature 84 °F 91 °F 100 °F (1932)
Min Temperature 73 °F 71 °F 66 °F (1993)
Cooling Degree Days 14    
Growing Degree Days 28 (Base 50)    
Moisture  
Dew Point 72 °F    
Average Humidity 84    
Maximum Humidity 94    
Minimum Humidity 63    
Precipitation  
Precipitation 0.40 in - - ()
Sea Level Pressure  
Sea Level Pressure 30.13 in    
Wind  
Wind Speed 3 mph (East)    
Max Wind Speed 13 mph    
Max Gust Speed -    
Visibility 9 miles    
Events Rain    
Averages and records for this station are not official NWS values.
T = Trace of Precipitation, MM = Missing Value Source: NWS Daily Summary

Daily Weather History Graph

Daily Weather History Graph

Search for Another Location

Airport:

Trip Planner

Search our weather history database for the weather conditions in past years. The results will help you decide how hot, cold, wet, or windy it might be!

Date:

Astronomy

Jul. 09, 2013 Rise Set
Actual Time 6:33 AM EDT 8:20 PM EDT
Civil Twilight 6:07 AM EDT 8:46 PM EDT
Nautical Twilight 5:35 AM EDT 9:17 PM EDT
Astronomical Twilight 5:02 AM EDT 9:51 PM EDT
Moon 7:45 AM EDT (7/9) 9:10 PM EDT (7/9)
Length of Visible Light 14h 39m
Length of Day
13h 46m
New Moon, 2% of the Moon is Illuminated
Jul 9
New Moon
Jul 15
First Quarter
Jul 22
Full
Jul 29
Last Quarter
Aug 6
New

Hourly Weather History & Observations

Time (EDT) Temp. Heat Index Dew Point Humidity Pressure Visibility Wind Dir Wind Speed Gust Speed Precip Events Conditions
12:53 AM 78.1 °F - 73.0 °F 84% 30.16 in 10.0 mi Calm Calm - N/A   Clear
1:53 AM 75.0 °F - 72.0 °F 90% 30.14 in 10.0 mi Calm Calm - N/A   Clear
2:53 AM 75.9 °F - 73.0 °F 91% 30.12 in 10.0 mi SSE 3.5 mph - N/A   Mostly Cloudy
3:03 AM 75.2 °F - 71.6 °F 89% 30.12 in 10.0 mi East 4.6 mph - N/A   Mostly Cloudy
3:53 AM 73.0 °F - 70.0 °F 90% 30.11 in 10.0 mi Calm Calm - N/A   Clear
4:53 AM 73.0 °F - 70.0 °F 90% 30.11 in 10.0 mi Calm Calm - N/A   Clear
5:53 AM 73.9 °F - 71.1 °F 91% 30.11 in 10.0 mi Calm Calm - 0.07 in   Partly Cloudy
6:53 AM 73.9 °F - 72.0 °F 93% 30.13 in 10.0 mi SSE 5.8 mph - N/A   Overcast
7:37 AM 75.2 °F - 73.4 °F 94% 30.14 in 2.5 mi Calm Calm - 0.05 in Rain Heavy Rain
7:40 AM 75.2 °F - 73.4 °F 94% 30.14 in 1.8 mi Calm Calm - 0.07 in Rain Heavy Rain
7:45 AM 75.2 °F - 73.4 °F 94% 30.13 in 7.0 mi NW 3.5 mph - 0.07 in Rain Heavy Rain
7:53 AM 75.9 °F - 73.9 °F 94% 30.14 in 7.0 mi WNW 3.5 mph - 0.07 in Rain Light Rain
8:00 AM 75.2 °F - 73.4 °F 94% 30.14 in 10.0 mi Calm Calm - 0.00 in   Mostly Cloudy
8:45 AM 77.0 °F - 73.4 °F 89% 30.15 in 10.0 mi South 5.8 mph - 0.00 in   Mostly Cloudy
8:53 AM 77.0 °F - 73.9 °F 90% 30.16 in 10.0 mi SSW 3.5 mph - 0.00 in   Mostly Cloudy
9:53 AM 80.1 °F 84.2 °F 73.0 °F 79% 30.15 in 10.0 mi ENE 8.1 mph - 0.01 in   Partly Cloudy
10:38 AM 78.8 °F - 71.6 °F 78% 30.17 in 10.0 mi SSE 10.4 mph - N/A   Overcast
10:53 AM 77.0 °F - 70.0 °F 79% 30.17 in 10.0 mi SSE 9.2 mph - N/A   Overcast
11:01 AM 77.0 °F - 71.6 °F 83% 30.18 in 1.8 mi ESE 12.7 mph - 0.11 in Rain Light Rain
11:14 AM 75.2 °F - 71.6 °F 89% 30.18 in 3.0 mi SSE 9.2 mph - 0.21 in Rain Rain
11:21 AM 75.2 °F - 71.6 °F 89% 30.18 in 6.0 mi SE 5.8 mph - 0.21 in Rain Light Rain
11:53 AM 75.9 °F - 72.0 °F 87% 30.18 in 7.0 mi NNW 4.6 mph - 0.25 in Rain Light Rain
12:53 PM 81.0 °F 85.2 °F 72.0 °F 74% 30.16 in 10.0 mi NNE 8.1 mph - 0.00 in   Mostly Cloudy
1:53 PM 82.9 °F 88.0 °F 72.0 °F 69% 30.15 in 10.0 mi NE 6.9 mph - 0.00 in   Partly Cloudy
2:53 PM 84.0 °F 89.6 °F 72.0 °F 67% 30.14 in 10.0 mi East 6.9 mph - N/A   Scattered Clouds
3:53 PM 84.0 °F 88.4 °F 70.0 °F 63% 30.11 in 10.0 mi ENE 5.8 mph - N/A   Scattered Clouds
4:53 PM 84.0 °F 88.4 °F 70.0 °F 63% 30.09 in 10.0 mi ENE 8.1 mph - N/A   Clear
5:53 PM 82.0 °F 86.3 °F 71.1 °F 69% 30.09 in 10.0 mi NNE 4.6 mph - N/A   Clear
6:53 PM 81.0 °F 84.9 °F 71.1 °F 72% 30.08 in 10.0 mi Calm Calm - N/A   Clear
7:53 PM 80.1 °F 83.8 °F 72.0 °F 76% 30.08 in 10.0 mi East 5.8 mph - 0.00 in Rain Light Rain
8:53 PM 78.1 °F - 73.0 °F 84% 30.09 in 10.0 mi Calm Calm - N/A   Clear
9:53 PM 75.9 °F - 72.0 °F 87% 30.10 in 10.0 mi North 3.5 mph - N/A   Clear
10:53 PM 75.9 °F - 73.0 °F 91% 30.10 in 10.0 mi Calm Calm - N/A   Clear
11:53 PM 75.9 °F - 72.0 °F 87% 30.10 in 10.0 mi East 3.5 mph - N/A   Scattered Clouds